Tracking 29892 objects as of 21-Nov-2024
HD Live streaming from Space Station
objects crossing your sky now

ONEWEB-0610

Track ONEWEB-0610 now!
10-day predictions
ONEWEB-0610 is classified as:


NORAD ID: 54673
Int'l Code: 2022-166AH
Perigee: 1,183.3 km
Apogee: 1,186.5 km
Inclination: 87.9 °
Period: 108.9 minutes
Semi major axis: 7555 km
RCS: Unknown
Launch date: December 8, 2022
Source: United Kingdom (UK)
Launch site: AIR FORCE EASTERN TEST RANGE (AFETR)
Your satellite tracking list
Your tracking list is empty




NASA's NSSDC Master Catalog

Two Line Element Set (TLE):
1 54673U 22166AH  24325.03147471  .00000140  00000-0  30853-3 0  9992
2 54673  87.9313 358.3600 0002122 109.1824 250.9540 13.21827228 95606
Source of the keplerian elements: AFSPC